Index of /20260428/WXO-DD/model_gdps/15km/00/072
Name Last modified Size Description
Parent Directory -
20260428T00Z_MSC_GDPS_AbsoluteVorticity_IsbL-0200_LatLon0.15_PT072H.grib2 2026-04-28 04:17 1.5M
20260428T00Z_MSC_GDPS_AbsoluteVorticity_IsbL-0250_LatLon0.15_PT072H.grib2 2026-04-28 04:17 1.3M
20260428T00Z_MSC_GDPS_AbsoluteVorticity_IsbL-0500_LatLon0.15_PT072H.grib2 2026-04-28 04:17 1.4M
20260428T00Z_MSC_GDPS_AbsoluteVorticity_IsbL-0700_LatLon0.15_PT072H.grib2 2026-04-28 04:17 1.3M
20260428T00Z_MSC_GDPS_AbsoluteVorticity_IsbL-0850_LatLon0.15_PT072H.grib2 2026-04-28 04:17 1.6M
20260428T00Z_MSC_GDPS_AirTemp-Max_AGL-2m_LatLon0.15_PT072H.grib2 2026-04-28 04:17 748K
20260428T00Z_MSC_GDPS_AirTemp-Min_AGL-2m_LatLon0.15_PT072H.grib2 2026-04-28 04:17 797K
20260428T00Z_MSC_GDPS_AirTemp_AGL-120m_LatLon0.15_PT072H.grib2 2026-04-28 04:17 912K
20260428T00Z_MSC_GDPS_AirTemp_AGL-2m_LatLon0.15_PT072H.grib2 2026-04-28 04:17 1.0M
20260428T00Z_MSC_GDPS_AirTemp_AGL-40m_LatLon0.15_PT072H.grib2 2026-04-28 04:17 817K
20260428T00Z_MSC_GDPS_AirTemp_AGL-80m_LatLon0.15_PT072H.grib2 2026-04-28 04:17 922K
20260428T00Z_MSC_GDPS_AirTemp_IsbL-0001_LatLon0.15_PT072H.grib2 2026-04-28 04:17 708K
20260428T00Z_MSC_GDPS_AirTemp_IsbL-0005_LatLon0.15_PT072H.grib2 2026-04-28 04:17 684K
20260428T00Z_MSC_GDPS_AirTemp_IsbL-0010_LatLon0.15_PT072H.grib2 2026-04-28 04:17 757K
20260428T00Z_MSC_GDPS_AirTemp_IsbL-0020_LatLon0.15_PT072H.grib2 2026-04-28 04:17 785K
20260428T00Z_MSC_GDPS_AirTemp_IsbL-0030_LatLon0.15_PT072H.grib2 2026-04-28 04:17 753K
20260428T00Z_MSC_GDPS_AirTemp_IsbL-0050_LatLon0.15_PT072H.grib2 2026-04-28 04:17 808K
20260428T00Z_MSC_GDPS_AirTemp_IsbL-0100_LatLon0.15_PT072H.grib2 2026-04-28 04:17 1.0M
20260428T00Z_MSC_GDPS_AirTemp_IsbL-0150_LatLon0.15_PT072H.grib2 2026-04-28 04:17 1.0M
20260428T00Z_MSC_GDPS_AirTemp_IsbL-0175_LatLon0.15_PT072H.grib2 2026-04-28 04:17 955K
20260428T00Z_MSC_GDPS_AirTemp_IsbL-0200_LatLon0.15_PT072H.grib2 2026-04-28 04:17 967K
20260428T00Z_MSC_GDPS_AirTemp_IsbL-0225_LatLon0.15_PT072H.grib2 2026-04-28 04:17 973K
20260428T00Z_MSC_GDPS_AirTemp_IsbL-0250_LatLon0.15_PT072H.grib2 2026-04-28 04:17 1.0M
20260428T00Z_MSC_GDPS_AirTemp_IsbL-0275_LatLon0.15_PT072H.grib2 2026-04-28 04:17 1.0M
20260428T00Z_MSC_GDPS_AirTemp_IsbL-0300_LatLon0.15_PT072H.grib2 2026-04-28 04:17 942K
20260428T00Z_MSC_GDPS_AirTemp_IsbL-0350_LatLon0.15_PT072H.grib2 2026-04-28 04:17 925K
20260428T00Z_MSC_GDPS_AirTemp_IsbL-0400_LatLon0.15_PT072H.grib2 2026-04-28 04:17 936K
20260428T00Z_MSC_GDPS_AirTemp_IsbL-0450_LatLon0.15_PT072H.grib2 2026-04-28 04:17 737K
20260428T00Z_MSC_GDPS_AirTemp_IsbL-0500_LatLon0.15_PT072H.grib2 2026-04-28 04:17 760K
20260428T00Z_MSC_GDPS_AirTemp_IsbL-0550_LatLon0.15_PT072H.grib2 2026-04-28 04:17 794K
20260428T00Z_MSC_GDPS_AirTemp_IsbL-0600_LatLon0.15_PT072H.grib2 2026-04-28 04:17 888K
20260428T00Z_MSC_GDPS_AirTemp_IsbL-0650_LatLon0.15_PT072H.grib2 2026-04-28 04:17 912K
20260428T00Z_MSC_GDPS_AirTemp_IsbL-0700_LatLon0.15_PT072H.grib2 2026-04-28 04:17 944K
20260428T00Z_MSC_GDPS_AirTemp_IsbL-0750_LatLon0.15_PT072H.grib2 2026-04-28 04:17 1.0M
20260428T00Z_MSC_GDPS_AirTemp_IsbL-0800_LatLon0.15_PT072H.grib2 2026-04-28 04:17 1.0M
20260428T00Z_MSC_GDPS_AirTemp_IsbL-0850_LatLon0.15_PT072H.grib2 2026-04-28 04:17 1.1M
20260428T00Z_MSC_GDPS_AirTemp_IsbL-0875_LatLon0.15_PT072H.grib2 2026-04-28 04:17 1.1M
20260428T00Z_MSC_GDPS_AirTemp_IsbL-0900_LatLon0.15_PT072H.grib2 2026-04-28 04:17 1.1M
20260428T00Z_MSC_GDPS_AirTemp_IsbL-0925_LatLon0.15_PT072H.grib2 2026-04-28 04:17 1.1M
20260428T00Z_MSC_GDPS_AirTemp_IsbL-0950_LatLon0.15_PT072H.grib2 2026-04-28 04:17 1.1M
20260428T00Z_MSC_GDPS_AirTemp_IsbL-0970_LatLon0.15_PT072H.grib2 2026-04-28 04:17 1.2M
20260428T00Z_MSC_GDPS_AirTemp_IsbL-0985_LatLon0.15_PT072H.grib2 2026-04-28 04:17 1.1M
20260428T00Z_MSC_GDPS_AirTemp_IsbL-1000_LatLon0.15_PT072H.grib2 2026-04-28 04:17 1.1M
20260428T00Z_MSC_GDPS_AirTemp_IsbL-1015_LatLon0.15_PT072H.grib2 2026-04-28 04:17 1.1M
20260428T00Z_MSC_GDPS_Albedo_Sfc_LatLon0.15_PT072H.grib2 2026-04-28 04:17 243K
20260428T00Z_MSC_GDPS_CAPE_Sfc_LatLon0.15_PT072H.grib2 2026-04-28 04:17 3.9M
20260428T00Z_MSC_GDPS_CIN_Sfc_LatLon0.15_PT072H.grib2 2026-04-28 04:17 2.9M
20260428T00Z_MSC_GDPS_CloudWater_EAtm_LatLon0.15_PT072H.grib2 2026-04-28 04:17 533K
20260428T00Z_MSC_GDPS_ConvectivePrecip-Accum_Sfc_LatLon0.15_PT072H.grib2 2026-04-28 04:17 3.1M
20260428T00Z_MSC_GDPS_DewPointDepression_AGL-2m_LatLon0.15_PT072H.grib2 2026-04-28 04:17 757K
20260428T00Z_MSC_GDPS_DewPointDepression_IsbL-0010_LatLon0.15_PT072H.grib2 2026-04-28 04:17 55K
20260428T00Z_MSC_GDPS_DewPointDepression_IsbL-0020_LatLon0.15_PT072H.grib2 2026-04-28 04:17 63K
20260428T00Z_MSC_GDPS_DewPointDepression_IsbL-0030_LatLon0.15_PT072H.grib2 2026-04-28 04:17 79K
20260428T00Z_MSC_GDPS_DewPointDepression_IsbL-0050_LatLon0.15_PT072H.grib2 2026-04-28 04:17 367K
20260428T00Z_MSC_GDPS_DewPointDepression_IsbL-0100_LatLon0.15_PT072H.grib2 2026-04-28 04:17 413K
20260428T00Z_MSC_GDPS_DewPointDepression_IsbL-0150_LatLon0.15_PT072H.grib2 2026-04-28 04:17 452K
20260428T00Z_MSC_GDPS_DewPointDepression_IsbL-0175_LatLon0.15_PT072H.grib2 2026-04-28 04:17 557K
20260428T00Z_MSC_GDPS_DewPointDepression_IsbL-0200_LatLon0.15_PT072H.grib2 2026-04-28 04:17 678K
20260428T00Z_MSC_GDPS_DewPointDepression_IsbL-0225_LatLon0.15_PT072H.grib2 2026-04-28 04:17 787K
20260428T00Z_MSC_GDPS_DewPointDepression_IsbL-0250_LatLon0.15_PT072H.grib2 2026-04-28 04:17 867K
20260428T00Z_MSC_GDPS_DewPointDepression_IsbL-0275_LatLon0.15_PT072H.grib2 2026-04-28 04:17 879K
20260428T00Z_MSC_GDPS_DewPointDepression_IsbL-0300_LatLon0.15_PT072H.grib2 2026-04-28 04:17 923K
20260428T00Z_MSC_GDPS_DewPointDepression_IsbL-0350_LatLon0.15_PT072H.grib2 2026-04-28 04:17 944K
20260428T00Z_MSC_GDPS_DewPointDepression_IsbL-0400_LatLon0.15_PT072H.grib2 2026-04-28 04:17 969K
20260428T00Z_MSC_GDPS_DewPointDepression_IsbL-0450_LatLon0.15_PT072H.grib2 2026-04-28 04:17 1.0M
20260428T00Z_MSC_GDPS_DewPointDepression_IsbL-0500_LatLon0.15_PT072H.grib2 2026-04-28 04:17 1.0M
20260428T00Z_MSC_GDPS_DewPointDepression_IsbL-0550_LatLon0.15_PT072H.grib2 2026-04-28 04:17 1.0M
20260428T00Z_MSC_GDPS_DewPointDepression_IsbL-0600_LatLon0.15_PT072H.grib2 2026-04-28 04:17 1.0M
20260428T00Z_MSC_GDPS_DewPointDepression_IsbL-0650_LatLon0.15_PT072H.grib2 2026-04-28 04:17 1.1M
20260428T00Z_MSC_GDPS_DewPointDepression_IsbL-0700_LatLon0.15_PT072H.grib2 2026-04-28 04:17 1.1M
20260428T00Z_MSC_GDPS_DewPointDepression_IsbL-0750_LatLon0.15_PT072H.grib2 2026-04-28 04:17 1.1M
20260428T00Z_MSC_GDPS_DewPointDepression_IsbL-0800_LatLon0.15_PT072H.grib2 2026-04-28 04:17 1.2M
20260428T00Z_MSC_GDPS_DewPointDepression_IsbL-0850_LatLon0.15_PT072H.grib2 2026-04-28 04:17 1.2M
20260428T00Z_MSC_GDPS_DewPointDepression_IsbL-0875_LatLon0.15_PT072H.grib2 2026-04-28 04:17 1.1M
20260428T00Z_MSC_GDPS_DewPointDepression_IsbL-0900_LatLon0.15_PT072H.grib2 2026-04-28 04:17 1.1M
20260428T00Z_MSC_GDPS_DewPointDepression_IsbL-0925_LatLon0.15_PT072H.grib2 2026-04-28 04:17 1.0M
20260428T00Z_MSC_GDPS_DewPointDepression_IsbL-0950_LatLon0.15_PT072H.grib2 2026-04-28 04:17 1.0M
20260428T00Z_MSC_GDPS_DewPointDepression_IsbL-0970_LatLon0.15_PT072H.grib2 2026-04-28 04:17 1.0M
20260428T00Z_MSC_GDPS_DewPointDepression_IsbL-0985_LatLon0.15_PT072H.grib2 2026-04-28 04:17 1.0M
20260428T00Z_MSC_GDPS_DewPointDepression_IsbL-1000_LatLon0.15_PT072H.grib2 2026-04-28 04:17 1.0M
20260428T00Z_MSC_GDPS_DewPointDepression_IsbL-1015_LatLon0.15_PT072H.grib2 2026-04-28 04:17 915K
20260428T00Z_MSC_GDPS_DewPoint_AGL-2m_LatLon0.15_PT072H.grib2 2026-04-28 04:17 604K
20260428T00Z_MSC_GDPS_DownwardLongwaveRadiationFlux-Accum_Sfc_LatLon0.15_PT072H.grib2 2026-04-28 04:17 909K
20260428T00Z_MSC_GDPS_DownwardShortwaveRadiationFlux-Accum_NTAtm_LatLon0.15_PT072H.grib2 2026-04-28 04:17 160K
20260428T00Z_MSC_GDPS_DownwardShortwaveRadiationFlux-Accum_Sfc_LatLon0.15_PT072H.grib2 2026-04-28 04:17 1.1M
20260428T00Z_MSC_GDPS_FreezingRain-Accum12h_Sfc_LatLon0.15_PT072H.grib2 2026-04-28 04:17 145K
20260428T00Z_MSC_GDPS_FreezingRain-Accum1h_Sfc_LatLon0.15_PT072H.grib2 2026-04-28 04:17 42K
20260428T00Z_MSC_GDPS_FreezingRain-Accum24h_Sfc_LatLon0.15_PT072H.grib2 2026-04-28 04:17 174K
20260428T00Z_MSC_GDPS_FreezingRain-Accum3h_Sfc_LatLon0.15_PT072H.grib2 2026-04-28 04:17 52K
20260428T00Z_MSC_GDPS_FreezingRain-Accum6h_Sfc_LatLon0.15_PT072H.grib2 2026-04-28 04:17 83K
20260428T00Z_MSC_GDPS_FreezingRain-Accum_Sfc_LatLon0.15_PT072H.grib2 2026-04-28 04:17 343K
20260428T00Z_MSC_GDPS_GeopotentialHeight_IsbL-0001_LatLon0.15_PT072H.grib2 2026-04-28 04:17 417K
20260428T00Z_MSC_GDPS_GeopotentialHeight_IsbL-0005_LatLon0.15_PT072H.grib2 2026-04-28 04:17 486K
20260428T00Z_MSC_GDPS_GeopotentialHeight_IsbL-0010_LatLon0.15_PT072H.grib2 2026-04-28 04:17 471K
20260428T00Z_MSC_GDPS_GeopotentialHeight_IsbL-0020_LatLon0.15_PT072H.grib2 2026-04-28 04:17 412K
20260428T00Z_MSC_GDPS_GeopotentialHeight_IsbL-0030_LatLon0.15_PT072H.grib2 2026-04-28 04:17 571K
20260428T00Z_MSC_GDPS_GeopotentialHeight_IsbL-0050_LatLon0.15_PT072H.grib2 2026-04-28 04:17 575K
20260428T00Z_MSC_GDPS_GeopotentialHeight_IsbL-0100_LatLon0.15_PT072H.grib2 2026-04-28 04:17 610K
20260428T00Z_MSC_GDPS_GeopotentialHeight_IsbL-0150_LatLon0.15_PT072H.grib2 2026-04-28 04:17 629K
20260428T00Z_MSC_GDPS_GeopotentialHeight_IsbL-0175_LatLon0.15_PT072H.grib2 2026-04-28 04:17 631K
20260428T00Z_MSC_GDPS_GeopotentialHeight_IsbL-0200_LatLon0.15_PT072H.grib2 2026-04-28 04:17 635K
20260428T00Z_MSC_GDPS_GeopotentialHeight_IsbL-0225_LatLon0.15_PT072H.grib2 2026-04-28 04:17 638K
20260428T00Z_MSC_GDPS_GeopotentialHeight_IsbL-0250_LatLon0.15_PT072H.grib2 2026-04-28 04:17 640K
20260428T00Z_MSC_GDPS_GeopotentialHeight_IsbL-0275_LatLon0.15_PT072H.grib2 2026-04-28 04:17 639K
20260428T00Z_MSC_GDPS_GeopotentialHeight_IsbL-0300_LatLon0.15_PT072H.grib2 2026-04-28 04:17 631K
20260428T00Z_MSC_GDPS_GeopotentialHeight_IsbL-0350_LatLon0.15_PT072H.grib2 2026-04-28 04:17 628K
20260428T00Z_MSC_GDPS_GeopotentialHeight_IsbL-0400_LatLon0.15_PT072H.grib2 2026-04-28 04:17 620K
20260428T00Z_MSC_GDPS_GeopotentialHeight_IsbL-0450_LatLon0.15_PT072H.grib2 2026-04-28 04:17 611K
20260428T00Z_MSC_GDPS_GeopotentialHeight_IsbL-0500_LatLon0.15_PT072H.grib2 2026-04-28 04:17 532K
20260428T00Z_MSC_GDPS_GeopotentialHeight_IsbL-0550_LatLon0.15_PT072H.grib2 2026-04-28 04:17 525K
20260428T00Z_MSC_GDPS_GeopotentialHeight_IsbL-0600_LatLon0.15_PT072H.grib2 2026-04-28 04:17 519K
20260428T00Z_MSC_GDPS_GeopotentialHeight_IsbL-0650_LatLon0.15_PT072H.grib2 2026-04-28 04:17 683K
20260428T00Z_MSC_GDPS_GeopotentialHeight_IsbL-0700_LatLon0.15_PT072H.grib2 2026-04-28 04:17 683K
20260428T00Z_MSC_GDPS_GeopotentialHeight_IsbL-0750_LatLon0.15_PT072H.grib2 2026-04-28 04:17 684K
20260428T00Z_MSC_GDPS_GeopotentialHeight_IsbL-0800_LatLon0.15_PT072H.grib2 2026-04-28 04:17 697K
20260428T00Z_MSC_GDPS_GeopotentialHeight_IsbL-0850_LatLon0.15_PT072H.grib2 2026-04-28 04:17 706K
20260428T00Z_MSC_GDPS_GeopotentialHeight_IsbL-0875_LatLon0.15_PT072H.grib2 2026-04-28 04:17 709K
20260428T00Z_MSC_GDPS_GeopotentialHeight_IsbL-0900_LatLon0.15_PT072H.grib2 2026-04-28 04:17 718K
20260428T00Z_MSC_GDPS_GeopotentialHeight_IsbL-0925_LatLon0.15_PT072H.grib2 2026-04-28 04:17 726K
20260428T00Z_MSC_GDPS_GeopotentialHeight_IsbL-0950_LatLon0.15_PT072H.grib2 2026-04-28 04:17 734K
20260428T00Z_MSC_GDPS_GeopotentialHeight_IsbL-0970_LatLon0.15_PT072H.grib2 2026-04-28 04:17 745K
20260428T00Z_MSC_GDPS_GeopotentialHeight_IsbL-0985_LatLon0.15_PT072H.grib2 2026-04-28 04:17 760K
20260428T00Z_MSC_GDPS_GeopotentialHeight_IsbL-1000_LatLon0.15_PT072H.grib2 2026-04-28 04:17 782K
20260428T00Z_MSC_GDPS_GeopotentialHeight_IsbL-1015_LatLon0.15_PT072H.grib2 2026-04-28 04:17 805K
20260428T00Z_MSC_GDPS_Humidex_Sfc_LatLon0.15_PT072H.grib2 2026-04-28 04:17 5.3M
20260428T00Z_MSC_GDPS_IcePellets-Accum12h_Sfc_LatLon0.15_PT072H.grib2 2026-04-28 04:17 20K
20260428T00Z_MSC_GDPS_IcePellets-Accum1h_Sfc_LatLon0.15_PT072H.grib2 2026-04-28 04:17 7.3K
20260428T00Z_MSC_GDPS_IcePellets-Accum24h_Sfc_LatLon0.15_PT072H.grib2 2026-04-28 04:17 27K
20260428T00Z_MSC_GDPS_IcePellets-Accum3h_Sfc_LatLon0.15_PT072H.grib2 2026-04-28 04:17 8.9K
20260428T00Z_MSC_GDPS_IcePellets-Accum6h_Sfc_LatLon0.15_PT072H.grib2 2026-04-28 04:17 13K
20260428T00Z_MSC_GDPS_IcePellets-Accum_Sfc_LatLon0.15_PT072H.grib2 2026-04-28 04:17 82K
20260428T00Z_MSC_GDPS_KIndex_Sfc_LatLon0.15_PT072H.grib2 2026-04-28 04:17 6.5M
20260428T00Z_MSC_GDPS_LatentHeatNetFlux_Sfc_LatLon0.15_PT072H.grib2 2026-04-28 04:17 648K
20260428T00Z_MSC_GDPS_LiftedIndex-MU-VT_IsbL-0500_LatLon0.15_PT072H.grib2 2026-04-28 04:17 5.3M
20260428T00Z_MSC_GDPS_NetLongwaveRadiationFlux-Accum_Sfc_LatLon0.15_PT072H.grib2 2026-04-28 04:17 967K
20260428T00Z_MSC_GDPS_NetShortwaveRadiationFlux-Accum_Sfc_LatLon0.15_PT072H.grib2 2026-04-28 04:17 1.1M
20260428T00Z_MSC_GDPS_O3MixingRatio_LatLon0.15_PT072H.grib2 2026-04-28 04:53 2.3M
20260428T00Z_MSC_GDPS_O3_EAtm_LatLon0.15_PT072H.grib2 2026-04-28 04:53 2.5M
20260428T00Z_MSC_GDPS_PlanetaryBoundaryLayerHeight_Sfc_LatLon0.15_PT072H.grib2 2026-04-28 04:17 2.4M
20260428T00Z_MSC_GDPS_Precip-Accum12h_Sfc_LatLon0.15_PT072H.grib2 2026-04-28 04:17 4.1M
20260428T00Z_MSC_GDPS_Precip-Accum1h_Sfc_LatLon0.15_PT072H.grib2 2026-04-28 04:17 3.2M
20260428T00Z_MSC_GDPS_Precip-Accum24h_Sfc_LatLon0.15_PT072H.grib2 2026-04-28 04:17 4.6M
20260428T00Z_MSC_GDPS_Precip-Accum3h_Sfc_LatLon0.15_PT072H.grib2 2026-04-28 04:17 3.5M
20260428T00Z_MSC_GDPS_Precip-Accum6h_Sfc_LatLon0.15_PT072H.grib2 2026-04-28 04:17 3.8M
20260428T00Z_MSC_GDPS_Precip-Accum_Sfc_LatLon0.15_PT072H.grib2 2026-04-28 04:17 5.2M
20260428T00Z_MSC_GDPS_PrecipRate_Sfc_LatLon0.15_PT072H.grib2 2026-04-28 04:17 3.0M
20260428T00Z_MSC_GDPS_PrecipType-Instant_Sfc_LatLon0.15_PT072H.grib2 2026-04-28 04:17 1.5M
20260428T00Z_MSC_GDPS_Pressure_MSL_LatLon0.15_PT072H.grib2 2026-04-28 04:17 719K
20260428T00Z_MSC_GDPS_Pressure_PVU-1.5_LatLon0.15_PT072H.grib2 2026-04-28 04:17 5.8M
20260428T00Z_MSC_GDPS_Pressure_PVU-1_LatLon0.15_PT072H.grib2 2026-04-28 04:17 6.0M
20260428T00Z_MSC_GDPS_Pressure_PVU-2_LatLon0.15_PT072H.grib2 2026-04-28 04:17 5.6M
20260428T00Z_MSC_GDPS_Pressure_Sfc_LatLon0.15_PT072H.grib2 2026-04-28 04:17 1.1M
20260428T00Z_MSC_GDPS_RadiativeTemp_Sfc_LatLon0.15_PT072H.grib2 2026-04-28 04:17 655K
20260428T00Z_MSC_GDPS_Rain-Accum12h_Sfc_LatLon0.15_PT072H.grib2 2026-04-28 04:17 2.7M
20260428T00Z_MSC_GDPS_Rain-Accum1h_Sfc_LatLon0.15_PT072H.grib2 2026-04-28 04:17 1.5M
20260428T00Z_MSC_GDPS_Rain-Accum24h_Sfc_LatLon0.15_PT072H.grib2 2026-04-28 04:17 3.2M
20260428T00Z_MSC_GDPS_Rain-Accum3h_Sfc_LatLon0.15_PT072H.grib2 2026-04-28 04:17 1.7M
20260428T00Z_MSC_GDPS_Rain-Accum6h_Sfc_LatLon0.15_PT072H.grib2 2026-04-28 04:17 2.4M
20260428T00Z_MSC_GDPS_Rain-Accum_Sfc_LatLon0.15_PT072H.grib2 2026-04-28 04:17 3.9M
20260428T00Z_MSC_GDPS_RelativeHumidity_AGL-2m_LatLon0.15_PT072H.grib2 2026-04-28 04:17 1.0M
20260428T00Z_MSC_GDPS_RelativeHumidity_IsbL-0010_LatLon0.15_PT072H.grib2 2026-04-28 04:17 191K
20260428T00Z_MSC_GDPS_RelativeHumidity_IsbL-0020_LatLon0.15_PT072H.grib2 2026-04-28 04:17 162K
20260428T00Z_MSC_GDPS_RelativeHumidity_IsbL-0030_LatLon0.15_PT072H.grib2 2026-04-28 04:17 267K
20260428T00Z_MSC_GDPS_RelativeHumidity_IsbL-0050_LatLon0.15_PT072H.grib2 2026-04-28 04:17 331K
20260428T00Z_MSC_GDPS_RelativeHumidity_IsbL-0100_LatLon0.15_PT072H.grib2 2026-04-28 04:17 507K
20260428T00Z_MSC_GDPS_RelativeHumidity_IsbL-0150_LatLon0.15_PT072H.grib2 2026-04-28 04:17 650K
20260428T00Z_MSC_GDPS_RelativeHumidity_IsbL-0175_LatLon0.15_PT072H.grib2 2026-04-28 04:17 770K
20260428T00Z_MSC_GDPS_RelativeHumidity_IsbL-0200_LatLon0.15_PT072H.grib2 2026-04-28 04:17 691K
20260428T00Z_MSC_GDPS_RelativeHumidity_IsbL-0225_LatLon0.15_PT072H.grib2 2026-04-28 04:17 784K
20260428T00Z_MSC_GDPS_RelativeHumidity_IsbL-0250_LatLon0.15_PT072H.grib2 2026-04-28 04:17 865K
20260428T00Z_MSC_GDPS_RelativeHumidity_IsbL-0275_LatLon0.15_PT072H.grib2 2026-04-28 04:17 886K
20260428T00Z_MSC_GDPS_RelativeHumidity_IsbL-0300_LatLon0.15_PT072H.grib2 2026-04-28 04:17 929K
20260428T00Z_MSC_GDPS_RelativeHumidity_IsbL-0350_LatLon0.15_PT072H.grib2 2026-04-28 04:17 942K
20260428T00Z_MSC_GDPS_RelativeHumidity_IsbL-0400_LatLon0.15_PT072H.grib2 2026-04-28 04:17 962K
20260428T00Z_MSC_GDPS_RelativeHumidity_IsbL-0450_LatLon0.15_PT072H.grib2 2026-04-28 04:17 1.0M
20260428T00Z_MSC_GDPS_RelativeHumidity_IsbL-0500_LatLon0.15_PT072H.grib2 2026-04-28 04:17 1.0M
20260428T00Z_MSC_GDPS_RelativeHumidity_IsbL-0550_LatLon0.15_PT072H.grib2 2026-04-28 04:17 1.0M
20260428T00Z_MSC_GDPS_RelativeHumidity_IsbL-0600_LatLon0.15_PT072H.grib2 2026-04-28 04:17 1.0M
20260428T00Z_MSC_GDPS_RelativeHumidity_IsbL-0650_LatLon0.15_PT072H.grib2 2026-04-28 04:17 1.1M
20260428T00Z_MSC_GDPS_RelativeHumidity_IsbL-0700_LatLon0.15_PT072H.grib2 2026-04-28 04:17 1.1M
20260428T00Z_MSC_GDPS_RelativeHumidity_IsbL-0750_LatLon0.15_PT072H.grib2 2026-04-28 04:17 1.2M
20260428T00Z_MSC_GDPS_RelativeHumidity_IsbL-0800_LatLon0.15_PT072H.grib2 2026-04-28 04:17 1.2M
20260428T00Z_MSC_GDPS_RelativeHumidity_IsbL-0850_LatLon0.15_PT072H.grib2 2026-04-28 04:17 1.3M
20260428T00Z_MSC_GDPS_RelativeHumidity_IsbL-0875_LatLon0.15_PT072H.grib2 2026-04-28 04:17 1.3M
20260428T00Z_MSC_GDPS_RelativeHumidity_IsbL-0900_LatLon0.15_PT072H.grib2 2026-04-28 04:17 1.2M
20260428T00Z_MSC_GDPS_RelativeHumidity_IsbL-0925_LatLon0.15_PT072H.grib2 2026-04-28 04:17 1.2M
20260428T00Z_MSC_GDPS_RelativeHumidity_IsbL-0950_LatLon0.15_PT072H.grib2 2026-04-28 04:17 1.2M
20260428T00Z_MSC_GDPS_RelativeHumidity_IsbL-0970_LatLon0.15_PT072H.grib2 2026-04-28 04:17 1.2M
20260428T00Z_MSC_GDPS_RelativeHumidity_IsbL-0985_LatLon0.15_PT072H.grib2 2026-04-28 04:17 1.2M
20260428T00Z_MSC_GDPS_RelativeHumidity_IsbL-1000_LatLon0.15_PT072H.grib2 2026-04-28 04:17 1.1M
20260428T00Z_MSC_GDPS_RelativeHumidity_IsbL-1015_LatLon0.15_PT072H.grib2 2026-04-28 04:17 1.1M
20260428T00Z_MSC_GDPS_RelativeVorticity_IsbL-0200_LatLon0.15_PT072H.grib2 2026-04-28 04:17 1.5M
20260428T00Z_MSC_GDPS_RelativeVorticity_IsbL-0250_LatLon0.15_PT072H.grib2 2026-04-28 04:17 1.3M
20260428T00Z_MSC_GDPS_RelativeVorticity_IsbL-0500_LatLon0.15_PT072H.grib2 2026-04-28 04:17 1.4M
20260428T00Z_MSC_GDPS_RelativeVorticity_IsbL-0700_LatLon0.15_PT072H.grib2 2026-04-28 04:17 1.3M
20260428T00Z_MSC_GDPS_RelativeVorticity_IsbL-0850_LatLon0.15_PT072H.grib2 2026-04-28 04:17 1.6M
20260428T00Z_MSC_GDPS_Runoff-Accum_Sfc_LatLon0.15_PT072H.grib2 2026-04-28 04:17 153K
20260428T00Z_MSC_GDPS_SensibleHeatNetFlux_Sfc_LatLon0.15_PT072H.grib2 2026-04-28 04:17 596K
20260428T00Z_MSC_GDPS_ShowalterIndex_IsbL-0500_LatLon0.15_PT072H.grib2 2026-04-28 04:17 6.2M
20260428T00Z_MSC_GDPS_Snow-Accum12h_Sfc_LatLon0.15_PT072H.grib2 2026-04-28 04:17 1.5M
20260428T00Z_MSC_GDPS_Snow-Accum1h_Sfc_LatLon0.15_PT072H.grib2 2026-04-28 04:17 1.3M
20260428T00Z_MSC_GDPS_Snow-Accum24h_Sfc_LatLon0.15_PT072H.grib2 2026-04-28 04:17 1.7M
20260428T00Z_MSC_GDPS_Snow-Accum3h_Sfc_LatLon0.15_PT072H.grib2 2026-04-28 04:17 1.2M
20260428T00Z_MSC_GDPS_Snow-Accum6h_Sfc_LatLon0.15_PT072H.grib2 2026-04-28 04:17 1.4M
20260428T00Z_MSC_GDPS_Snow-Accum_Sfc_LatLon0.15_PT072H.grib2 2026-04-28 04:17 2.0M
20260428T00Z_MSC_GDPS_SnowDensity_Sfc_LatLon0.15_PT072H.grib2 2026-04-28 04:17 267K
20260428T00Z_MSC_GDPS_SnowDepth_Sfc_LatLon0.15_PT072H.grib2 2026-04-28 04:17 1.7M
20260428T00Z_MSC_GDPS_SoilTemp_DBS-0to10cm_LatLon0.15_PT072H.grib2 2026-04-28 04:17 504K
20260428T00Z_MSC_GDPS_SoilTemp_Sfc_LatLon0.15_PT072H.grib2 2026-04-28 04:17 557K
20260428T00Z_MSC_GDPS_SoilVolumetricIceContent_Sfc_LatLon0.15_PT072H.grib2 2026-04-28 04:17 206K
20260428T00Z_MSC_GDPS_SoilVolumetricWaterContent_DBS-0to10cm_LatLon0.15_PT072H.grib2 2026-04-28 04:17 583K
20260428T00Z_MSC_GDPS_SoilVolumetricWaterContent_DBS-0to1cm_LatLon0.15_PT072H.grib2 2026-04-28 04:17 648K
20260428T00Z_MSC_GDPS_SpecificHumidity_AGL-120m_LatLon0.15_PT072H.grib2 2026-04-28 04:17 1.1M
20260428T00Z_MSC_GDPS_SpecificHumidity_AGL-2m_LatLon0.15_PT072H.grib2 2026-04-28 04:17 1.2M
20260428T00Z_MSC_GDPS_SpecificHumidity_AGL-40m_LatLon0.15_PT072H.grib2 2026-04-28 04:17 1.1M
20260428T00Z_MSC_GDPS_SpecificHumidity_AGL-80m_LatLon0.15_PT072H.grib2 2026-04-28 04:17 1.1M
20260428T00Z_MSC_GDPS_SpecificHumidity_IsbL-0001_LatLon0.15_PT072H.grib2 2026-04-28 04:17 1.3M
20260428T00Z_MSC_GDPS_SpecificHumidity_IsbL-0005_LatLon0.15_PT072H.grib2 2026-04-28 04:17 1.2M
20260428T00Z_MSC_GDPS_SpecificHumidity_IsbL-0010_LatLon0.15_PT072H.grib2 2026-04-28 04:17 1.3M
20260428T00Z_MSC_GDPS_SpecificHumidity_IsbL-0020_LatLon0.15_PT072H.grib2 2026-04-28 04:17 1.4M
20260428T00Z_MSC_GDPS_SpecificHumidity_IsbL-0030_LatLon0.15_PT072H.grib2 2026-04-28 04:17 1.3M
20260428T00Z_MSC_GDPS_SpecificHumidity_IsbL-0050_LatLon0.15_PT072H.grib2 2026-04-28 04:17 1.3M
20260428T00Z_MSC_GDPS_SpecificHumidity_IsbL-0100_LatLon0.15_PT072H.grib2 2026-04-28 04:17 1.3M
20260428T00Z_MSC_GDPS_SpecificHumidity_IsbL-0150_LatLon0.15_PT072H.grib2 2026-04-28 04:17 1.2M
20260428T00Z_MSC_GDPS_SpecificHumidity_IsbL-0175_LatLon0.15_PT072H.grib2 2026-04-28 04:17 1.2M
20260428T00Z_MSC_GDPS_SpecificHumidity_IsbL-0200_LatLon0.15_PT072H.grib2 2026-04-28 04:17 1.3M
20260428T00Z_MSC_GDPS_SpecificHumidity_IsbL-0225_LatLon0.15_PT072H.grib2 2026-04-28 04:17 1.3M
20260428T00Z_MSC_GDPS_SpecificHumidity_IsbL-0250_LatLon0.15_PT072H.grib2 2026-04-28 04:17 1.4M
20260428T00Z_MSC_GDPS_SpecificHumidity_IsbL-0275_LatLon0.15_PT072H.grib2 2026-04-28 04:17 1.3M
20260428T00Z_MSC_GDPS_SpecificHumidity_IsbL-0300_LatLon0.15_PT072H.grib2 2026-04-28 04:17 1.2M
20260428T00Z_MSC_GDPS_SpecificHumidity_IsbL-0350_LatLon0.15_PT072H.grib2 2026-04-28 04:17 1.5M
20260428T00Z_MSC_GDPS_SpecificHumidity_IsbL-0400_LatLon0.15_PT072H.grib2 2026-04-28 04:17 1.4M
20260428T00Z_MSC_GDPS_SpecificHumidity_IsbL-0450_LatLon0.15_PT072H.grib2 2026-04-28 04:17 1.6M
20260428T00Z_MSC_GDPS_SpecificHumidity_IsbL-0500_LatLon0.15_PT072H.grib2 2026-04-28 04:17 1.4M
20260428T00Z_MSC_GDPS_SpecificHumidity_IsbL-0550_LatLon0.15_PT072H.grib2 2026-04-28 04:17 1.6M
20260428T00Z_MSC_GDPS_SpecificHumidity_IsbL-0600_LatLon0.15_PT072H.grib2 2026-04-28 04:17 1.7M
20260428T00Z_MSC_GDPS_SpecificHumidity_IsbL-0650_LatLon0.15_PT072H.grib2 2026-04-28 04:17 1.5M
20260428T00Z_MSC_GDPS_SpecificHumidity_IsbL-0700_LatLon0.15_PT072H.grib2 2026-04-28 04:17 1.6M
20260428T00Z_MSC_GDPS_SpecificHumidity_IsbL-0750_LatLon0.15_PT072H.grib2 2026-04-28 04:17 1.7M
20260428T00Z_MSC_GDPS_SpecificHumidity_IsbL-0800_LatLon0.15_PT072H.grib2 2026-04-28 04:17 1.8M
20260428T00Z_MSC_GDPS_SpecificHumidity_IsbL-0850_LatLon0.15_PT072H.grib2 2026-04-28 04:17 1.9M
20260428T00Z_MSC_GDPS_SpecificHumidity_IsbL-0875_LatLon0.15_PT072H.grib2 2026-04-28 04:17 1.9M
20260428T00Z_MSC_GDPS_SpecificHumidity_IsbL-0900_LatLon0.15_PT072H.grib2 2026-04-28 04:17 1.6M
20260428T00Z_MSC_GDPS_SpecificHumidity_IsbL-0925_LatLon0.15_PT072H.grib2 2026-04-28 04:17 1.6M
20260428T00Z_MSC_GDPS_SpecificHumidity_IsbL-0950_LatLon0.15_PT072H.grib2 2026-04-28 04:17 1.5M
20260428T00Z_MSC_GDPS_SpecificHumidity_IsbL-0970_LatLon0.15_PT072H.grib2 2026-04-28 04:17 1.5M
20260428T00Z_MSC_GDPS_SpecificHumidity_IsbL-0985_LatLon0.15_PT072H.grib2 2026-04-28 04:17 1.5M
20260428T00Z_MSC_GDPS_SpecificHumidity_IsbL-1000_LatLon0.15_PT072H.grib2 2026-04-28 04:17 1.5M
20260428T00Z_MSC_GDPS_SpecificHumidity_IsbL-1015_LatLon0.15_PT072H.grib2 2026-04-28 04:17 1.4M
20260428T00Z_MSC_GDPS_SpecificHumidity_Sfc_LatLon0.15_PT072H.grib2 2026-04-28 04:17 630K
20260428T00Z_MSC_GDPS_Thickness_IsbL-0850to0700_LatLon0.15_PT072H.grib2 2026-04-28 04:17 460K
20260428T00Z_MSC_GDPS_Thickness_IsbL-1000to0500_LatLon0.15_PT072H.grib2 2026-04-28 04:17 366K
20260428T00Z_MSC_GDPS_Thickness_IsbL-1000to0850_LatLon0.15_PT072H.grib2 2026-04-28 04:17 482K
20260428T00Z_MSC_GDPS_TotalCloudCover_Sfc_LatLon0.15_PT072H.grib2 2026-04-28 04:17 833K
20260428T00Z_MSC_GDPS_TotalTotalsIndex_Sfc_LatLon0.15_PT072H.grib2 2026-04-28 04:17 6.2M
20260428T00Z_MSC_GDPS_UVIndex-ClearSky_Sfc_LatLon0.15_PT072H.grib2 2026-04-28 04:53 1.0M
20260428T00Z_MSC_GDPS_UVIndex_Sfc_LatLon0.15_PT072H.grib2 2026-04-28 04:53 1.5M
20260428T00Z_MSC_GDPS_UpwardLongwaveRadiationFlux_NTAtm_LatLon0.15_PT072H.grib2 2026-04-28 04:17 1.1M
20260428T00Z_MSC_GDPS_VerticalVelocity_IsbL-0200_LatLon0.15_PT072H.grib2 2026-04-28 04:17 1.1M
20260428T00Z_MSC_GDPS_VerticalVelocity_IsbL-0250_LatLon0.15_PT072H.grib2 2026-04-28 04:17 1.3M
20260428T00Z_MSC_GDPS_VerticalVelocity_IsbL-0500_LatLon0.15_PT072H.grib2 2026-04-28 04:17 1.3M
20260428T00Z_MSC_GDPS_VerticalVelocity_IsbL-0600_LatLon0.15_PT072H.grib2 2026-04-28 04:17 1.3M
20260428T00Z_MSC_GDPS_VerticalVelocity_IsbL-0700_LatLon0.15_PT072H.grib2 2026-04-28 04:17 1.4M
20260428T00Z_MSC_GDPS_VerticalVelocity_IsbL-0850_LatLon0.15_PT072H.grib2 2026-04-28 04:17 1.3M
20260428T00Z_MSC_GDPS_WindChill_Sfc_LatLon0.15_PT072H.grib2 2026-04-28 04:17 5.3M
20260428T00Z_MSC_GDPS_WindDir_AGL-10m_LatLon0.15_PT072H.grib2 2026-04-28 04:17 1.3M
20260428T00Z_MSC_GDPS_WindDir_AGL-120m_LatLon0.15_PT072H.grib2 2026-04-28 04:17 1.4M
20260428T00Z_MSC_GDPS_WindDir_AGL-40m_LatLon0.15_PT072H.grib2 2026-04-28 04:17 1.4M
20260428T00Z_MSC_GDPS_WindDir_AGL-80m_LatLon0.15_PT072H.grib2 2026-04-28 04:17 1.4M
20260428T00Z_MSC_GDPS_WindDir_IsbL-0001_LatLon0.15_PT072H.grib2 2026-04-28 04:17 708K
20260428T00Z_MSC_GDPS_WindDir_IsbL-0005_LatLon0.15_PT072H.grib2 2026-04-28 04:17 798K
20260428T00Z_MSC_GDPS_WindDir_IsbL-0010_LatLon0.15_PT072H.grib2 2026-04-28 04:17 852K
20260428T00Z_MSC_GDPS_WindDir_IsbL-0020_LatLon0.15_PT072H.grib2 2026-04-28 04:17 951K
20260428T00Z_MSC_GDPS_WindDir_IsbL-0030_LatLon0.15_PT072H.grib2 2026-04-28 04:17 917K
20260428T00Z_MSC_GDPS_WindDir_IsbL-0050_LatLon0.15_PT072H.grib2 2026-04-28 04:17 938K
20260428T00Z_MSC_GDPS_WindDir_IsbL-0100_LatLon0.15_PT072H.grib2 2026-04-28 04:17 1.0M
20260428T00Z_MSC_GDPS_WindDir_IsbL-0150_LatLon0.15_PT072H.grib2 2026-04-28 04:17 1.0M
20260428T00Z_MSC_GDPS_WindDir_IsbL-0175_LatLon0.15_PT072H.grib2 2026-04-28 04:17 1.1M
20260428T00Z_MSC_GDPS_WindDir_IsbL-0200_LatLon0.15_PT072H.grib2 2026-04-28 04:17 1.1M
20260428T00Z_MSC_GDPS_WindDir_IsbL-0225_LatLon0.15_PT072H.grib2 2026-04-28 04:17 1.1M
20260428T00Z_MSC_GDPS_WindDir_IsbL-0250_LatLon0.15_PT072H.grib2 2026-04-28 04:17 1.1M
20260428T00Z_MSC_GDPS_WindDir_IsbL-0275_LatLon0.15_PT072H.grib2 2026-04-28 04:17 1.2M
20260428T00Z_MSC_GDPS_WindDir_IsbL-0300_LatLon0.15_PT072H.grib2 2026-04-28 04:17 1.2M
20260428T00Z_MSC_GDPS_WindDir_IsbL-0350_LatLon0.15_PT072H.grib2 2026-04-28 04:17 1.2M
20260428T00Z_MSC_GDPS_WindDir_IsbL-0400_LatLon0.15_PT072H.grib2 2026-04-28 04:17 1.2M
20260428T00Z_MSC_GDPS_WindDir_IsbL-0450_LatLon0.15_PT072H.grib2 2026-04-28 04:17 1.3M
20260428T00Z_MSC_GDPS_WindDir_IsbL-0500_LatLon0.15_PT072H.grib2 2026-04-28 04:17 1.3M
20260428T00Z_MSC_GDPS_WindDir_IsbL-0550_LatLon0.15_PT072H.grib2 2026-04-28 04:17 1.4M
20260428T00Z_MSC_GDPS_WindDir_IsbL-0600_LatLon0.15_PT072H.grib2 2026-04-28 04:17 1.4M
20260428T00Z_MSC_GDPS_WindDir_IsbL-0650_LatLon0.15_PT072H.grib2 2026-04-28 04:17 1.5M
20260428T00Z_MSC_GDPS_WindDir_IsbL-0700_LatLon0.15_PT072H.grib2 2026-04-28 04:17 1.6M
20260428T00Z_MSC_GDPS_WindDir_IsbL-0750_LatLon0.15_PT072H.grib2 2026-04-28 04:17 1.7M
20260428T00Z_MSC_GDPS_WindDir_IsbL-0800_LatLon0.15_PT072H.grib2 2026-04-28 04:17 1.8M
20260428T00Z_MSC_GDPS_WindDir_IsbL-0850_LatLon0.15_PT072H.grib2 2026-04-28 04:17 1.9M
20260428T00Z_MSC_GDPS_WindDir_IsbL-0875_LatLon0.15_PT072H.grib2 2026-04-28 04:17 2.0M
20260428T00Z_MSC_GDPS_WindDir_IsbL-0900_LatLon0.15_PT072H.grib2 2026-04-28 04:17 2.0M
20260428T00Z_MSC_GDPS_WindDir_IsbL-0925_LatLon0.15_PT072H.grib2 2026-04-28 04:17 2.0M
20260428T00Z_MSC_GDPS_WindDir_IsbL-0950_LatLon0.15_PT072H.grib2 2026-04-28 04:17 2.0M
20260428T00Z_MSC_GDPS_WindDir_IsbL-0970_LatLon0.15_PT072H.grib2 2026-04-28 04:17 2.0M
20260428T00Z_MSC_GDPS_WindDir_IsbL-0985_LatLon0.15_PT072H.grib2 2026-04-28 04:17 2.0M
20260428T00Z_MSC_GDPS_WindDir_IsbL-1000_LatLon0.15_PT072H.grib2 2026-04-28 04:17 2.1M
20260428T00Z_MSC_GDPS_WindDir_IsbL-1015_LatLon0.15_PT072H.grib2 2026-04-28 04:17 2.0M
20260428T00Z_MSC_GDPS_WindGust-Max_AGL-10m_LatLon0.15_PT072H.grib2 2026-04-28 04:17 2.2M
20260428T00Z_MSC_GDPS_WindGust-Min_AGL-10m_LatLon0.15_PT072H.grib2 2026-04-28 04:17 2.2M
20260428T00Z_MSC_GDPS_WindGust_AGL-10m_LatLon0.15_PT072H.grib2 2026-04-28 04:17 2.2M
20260428T00Z_MSC_GDPS_WindSpeed_AGL-10m_LatLon0.15_PT072H.grib2 2026-04-28 04:17 1.1M
20260428T00Z_MSC_GDPS_WindSpeed_AGL-120m_LatLon0.15_PT072H.grib2 2026-04-28 04:17 1.3M
20260428T00Z_MSC_GDPS_WindSpeed_AGL-40m_LatLon0.15_PT072H.grib2 2026-04-28 04:17 1.2M
20260428T00Z_MSC_GDPS_WindSpeed_AGL-80m_LatLon0.15_PT072H.grib2 2026-04-28 04:17 1.2M
20260428T00Z_MSC_GDPS_WindSpeed_IsbL-0001_LatLon0.15_PT072H.grib2 2026-04-28 04:17 643K
20260428T00Z_MSC_GDPS_WindSpeed_IsbL-0005_LatLon0.15_PT072H.grib2 2026-04-28 04:17 611K
20260428T00Z_MSC_GDPS_WindSpeed_IsbL-0010_LatLon0.15_PT072H.grib2 2026-04-28 04:17 626K
20260428T00Z_MSC_GDPS_WindSpeed_IsbL-0020_LatLon0.15_PT072H.grib2 2026-04-28 04:17 859K
20260428T00Z_MSC_GDPS_WindSpeed_IsbL-0030_LatLon0.15_PT072H.grib2 2026-04-28 04:17 862K
20260428T00Z_MSC_GDPS_WindSpeed_IsbL-0050_LatLon0.15_PT072H.grib2 2026-04-28 04:17 907K
20260428T00Z_MSC_GDPS_WindSpeed_IsbL-0100_LatLon0.15_PT072H.grib2 2026-04-28 04:17 1.1M
20260428T00Z_MSC_GDPS_WindSpeed_IsbL-0150_LatLon0.15_PT072H.grib2 2026-04-28 04:17 1.0M
20260428T00Z_MSC_GDPS_WindSpeed_IsbL-0175_LatLon0.15_PT072H.grib2 2026-04-28 04:17 1.0M
20260428T00Z_MSC_GDPS_WindSpeed_IsbL-0200_LatLon0.15_PT072H.grib2 2026-04-28 04:17 1.1M
20260428T00Z_MSC_GDPS_WindSpeed_IsbL-0225_LatLon0.15_PT072H.grib2 2026-04-28 04:17 1.1M
20260428T00Z_MSC_GDPS_WindSpeed_IsbL-0250_LatLon0.15_PT072H.grib2 2026-04-28 04:17 1.1M
20260428T00Z_MSC_GDPS_WindSpeed_IsbL-0275_LatLon0.15_PT072H.grib2 2026-04-28 04:17 1.1M
20260428T00Z_MSC_GDPS_WindSpeed_IsbL-0300_LatLon0.15_PT072H.grib2 2026-04-28 04:17 1.1M
20260428T00Z_MSC_GDPS_WindSpeed_IsbL-0350_LatLon0.15_PT072H.grib2 2026-04-28 04:17 1.1M
20260428T00Z_MSC_GDPS_WindSpeed_IsbL-0400_LatLon0.15_PT072H.grib2 2026-04-28 04:17 1.1M
20260428T00Z_MSC_GDPS_WindSpeed_IsbL-0450_LatLon0.15_PT072H.grib2 2026-04-28 04:17 1.1M
20260428T00Z_MSC_GDPS_WindSpeed_IsbL-0500_LatLon0.15_PT072H.grib2 2026-04-28 04:17 1.1M
20260428T00Z_MSC_GDPS_WindSpeed_IsbL-0550_LatLon0.15_PT072H.grib2 2026-04-28 04:17 1.1M
20260428T00Z_MSC_GDPS_WindSpeed_IsbL-0600_LatLon0.15_PT072H.grib2 2026-04-28 04:17 1.1M
20260428T00Z_MSC_GDPS_WindSpeed_IsbL-0650_LatLon0.15_PT072H.grib2 2026-04-28 04:17 1.4M
20260428T00Z_MSC_GDPS_WindSpeed_IsbL-0700_LatLon0.15_PT072H.grib2 2026-04-28 04:17 1.5M
20260428T00Z_MSC_GDPS_WindSpeed_IsbL-0750_LatLon0.15_PT072H.grib2 2026-04-28 04:17 1.5M
20260428T00Z_MSC_GDPS_WindSpeed_IsbL-0800_LatLon0.15_PT072H.grib2 2026-04-28 04:17 1.6M
20260428T00Z_MSC_GDPS_WindSpeed_IsbL-0850_LatLon0.15_PT072H.grib2 2026-04-28 04:17 1.7M
20260428T00Z_MSC_GDPS_WindSpeed_IsbL-0875_LatLon0.15_PT072H.grib2 2026-04-28 04:17 1.8M
20260428T00Z_MSC_GDPS_WindSpeed_IsbL-0900_LatLon0.15_PT072H.grib2 2026-04-28 04:17 1.9M
20260428T00Z_MSC_GDPS_WindSpeed_IsbL-0925_LatLon0.15_PT072H.grib2 2026-04-28 04:17 1.9M
20260428T00Z_MSC_GDPS_WindSpeed_IsbL-0950_LatLon0.15_PT072H.grib2 2026-04-28 04:17 1.9M
20260428T00Z_MSC_GDPS_WindSpeed_IsbL-0970_LatLon0.15_PT072H.grib2 2026-04-28 04:17 1.9M
20260428T00Z_MSC_GDPS_WindSpeed_IsbL-0985_LatLon0.15_PT072H.grib2 2026-04-28 04:17 1.9M
20260428T00Z_MSC_GDPS_WindSpeed_IsbL-1000_LatLon0.15_PT072H.grib2 2026-04-28 04:17 1.8M
20260428T00Z_MSC_GDPS_WindSpeed_IsbL-1015_LatLon0.15_PT072H.grib2 2026-04-28 04:17 1.8M
20260428T00Z_MSC_GDPS_WindU_AGL-10m_LatLon0.15_PT072H.grib2 2026-04-28 04:17 1.6M
20260428T00Z_MSC_GDPS_WindU_AGL-120m_LatLon0.15_PT072H.grib2 2026-04-28 04:17 1.0M
20260428T00Z_MSC_GDPS_WindU_AGL-40m_LatLon0.15_PT072H.grib2 2026-04-28 04:17 1.0M
20260428T00Z_MSC_GDPS_WindU_AGL-80m_LatLon0.15_PT072H.grib2 2026-04-28 04:17 1.0M
20260428T00Z_MSC_GDPS_WindU_IsbL-0001_LatLon0.15_PT072H.grib2 2026-04-28 04:17 645K
20260428T00Z_MSC_GDPS_WindU_IsbL-0005_LatLon0.15_PT072H.grib2 2026-04-28 04:17 692K
20260428T00Z_MSC_GDPS_WindU_IsbL-0010_LatLon0.15_PT072H.grib2 2026-04-28 04:17 702K
20260428T00Z_MSC_GDPS_WindU_IsbL-0020_LatLon0.15_PT072H.grib2 2026-04-28 04:17 657K
20260428T00Z_MSC_GDPS_WindU_IsbL-0030_LatLon0.15_PT072H.grib2 2026-04-28 04:17 737K
20260428T00Z_MSC_GDPS_WindU_IsbL-0050_LatLon0.15_PT072H.grib2 2026-04-28 04:17 769K
20260428T00Z_MSC_GDPS_WindU_IsbL-0100_LatLon0.15_PT072H.grib2 2026-04-28 04:17 925K
20260428T00Z_MSC_GDPS_WindU_IsbL-0150_LatLon0.15_PT072H.grib2 2026-04-28 04:17 1.0M
20260428T00Z_MSC_GDPS_WindU_IsbL-0175_LatLon0.15_PT072H.grib2 2026-04-28 04:17 1.0M
20260428T00Z_MSC_GDPS_WindU_IsbL-0200_LatLon0.15_PT072H.grib2 2026-04-28 04:17 1.1M
20260428T00Z_MSC_GDPS_WindU_IsbL-0225_LatLon0.15_PT072H.grib2 2026-04-28 04:17 1.1M
20260428T00Z_MSC_GDPS_WindU_IsbL-0250_LatLon0.15_PT072H.grib2 2026-04-28 04:17 1.1M
20260428T00Z_MSC_GDPS_WindU_IsbL-0275_LatLon0.15_PT072H.grib2 2026-04-28 04:17 878K
20260428T00Z_MSC_GDPS_WindU_IsbL-0300_LatLon0.15_PT072H.grib2 2026-04-28 04:17 868K
20260428T00Z_MSC_GDPS_WindU_IsbL-0350_LatLon0.15_PT072H.grib2 2026-04-28 04:17 881K
20260428T00Z_MSC_GDPS_WindU_IsbL-0400_LatLon0.15_PT072H.grib2 2026-04-28 04:17 1.1M
20260428T00Z_MSC_GDPS_WindU_IsbL-0450_LatLon0.15_PT072H.grib2 2026-04-28 04:17 1.1M
20260428T00Z_MSC_GDPS_WindU_IsbL-0500_LatLon0.15_PT072H.grib2 2026-04-28 04:17 1.1M
20260428T00Z_MSC_GDPS_WindU_IsbL-0550_LatLon0.15_PT072H.grib2 2026-04-28 04:17 1.1M
20260428T00Z_MSC_GDPS_WindU_IsbL-0600_LatLon0.15_PT072H.grib2 2026-04-28 04:17 1.1M
20260428T00Z_MSC_GDPS_WindU_IsbL-0650_LatLon0.15_PT072H.grib2 2026-04-28 04:17 1.2M
20260428T00Z_MSC_GDPS_WindU_IsbL-0700_LatLon0.15_PT072H.grib2 2026-04-28 04:17 1.2M
20260428T00Z_MSC_GDPS_WindU_IsbL-0750_LatLon0.15_PT072H.grib2 2026-04-28 04:17 1.2M
20260428T00Z_MSC_GDPS_WindU_IsbL-0800_LatLon0.15_PT072H.grib2 2026-04-28 04:17 1.3M
20260428T00Z_MSC_GDPS_WindU_IsbL-0850_LatLon0.15_PT072H.grib2 2026-04-28 04:17 1.4M
20260428T00Z_MSC_GDPS_WindU_IsbL-0875_LatLon0.15_PT072H.grib2 2026-04-28 04:17 1.4M
20260428T00Z_MSC_GDPS_WindU_IsbL-0900_LatLon0.15_PT072H.grib2 2026-04-28 04:17 1.5M
20260428T00Z_MSC_GDPS_WindU_IsbL-0925_LatLon0.15_PT072H.grib2 2026-04-28 04:17 1.4M
20260428T00Z_MSC_GDPS_WindU_IsbL-0950_LatLon0.15_PT072H.grib2 2026-04-28 04:17 1.4M
20260428T00Z_MSC_GDPS_WindU_IsbL-0970_LatLon0.15_PT072H.grib2 2026-04-28 04:17 1.4M
20260428T00Z_MSC_GDPS_WindU_IsbL-0985_LatLon0.15_PT072H.grib2 2026-04-28 04:17 1.4M
20260428T00Z_MSC_GDPS_WindU_IsbL-1000_LatLon0.15_PT072H.grib2 2026-04-28 04:17 1.7M
20260428T00Z_MSC_GDPS_WindU_IsbL-1015_LatLon0.15_PT072H.grib2 2026-04-28 04:17 1.6M
20260428T00Z_MSC_GDPS_WindV_AGL-10m_LatLon0.15_PT072H.grib2 2026-04-28 04:17 1.6M
20260428T00Z_MSC_GDPS_WindV_AGL-120m_LatLon0.15_PT072H.grib2 2026-04-28 04:17 1.0M
20260428T00Z_MSC_GDPS_WindV_AGL-40m_LatLon0.15_PT072H.grib2 2026-04-28 04:17 1.2M
20260428T00Z_MSC_GDPS_WindV_AGL-80m_LatLon0.15_PT072H.grib2 2026-04-28 04:17 1.2M
20260428T00Z_MSC_GDPS_WindV_IsbL-0001_LatLon0.15_PT072H.grib2 2026-04-28 04:17 775K
20260428T00Z_MSC_GDPS_WindV_IsbL-0005_LatLon0.15_PT072H.grib2 2026-04-28 04:17 763K
20260428T00Z_MSC_GDPS_WindV_IsbL-0010_LatLon0.15_PT072H.grib2 2026-04-28 04:17 796K
20260428T00Z_MSC_GDPS_WindV_IsbL-0020_LatLon0.15_PT072H.grib2 2026-04-28 04:17 851K
20260428T00Z_MSC_GDPS_WindV_IsbL-0030_LatLon0.15_PT072H.grib2 2026-04-28 04:17 851K
20260428T00Z_MSC_GDPS_WindV_IsbL-0050_LatLon0.15_PT072H.grib2 2026-04-28 04:17 906K
20260428T00Z_MSC_GDPS_WindV_IsbL-0100_LatLon0.15_PT072H.grib2 2026-04-28 04:17 1.1M
20260428T00Z_MSC_GDPS_WindV_IsbL-0150_LatLon0.15_PT072H.grib2 2026-04-28 04:17 1.0M
20260428T00Z_MSC_GDPS_WindV_IsbL-0175_LatLon0.15_PT072H.grib2 2026-04-28 04:17 1.0M
20260428T00Z_MSC_GDPS_WindV_IsbL-0200_LatLon0.15_PT072H.grib2 2026-04-28 04:17 846K
20260428T00Z_MSC_GDPS_WindV_IsbL-0225_LatLon0.15_PT072H.grib2 2026-04-28 04:17 851K
20260428T00Z_MSC_GDPS_WindV_IsbL-0250_LatLon0.15_PT072H.grib2 2026-04-28 04:17 847K
20260428T00Z_MSC_GDPS_WindV_IsbL-0275_LatLon0.15_PT072H.grib2 2026-04-28 04:17 871K
20260428T00Z_MSC_GDPS_WindV_IsbL-0300_LatLon0.15_PT072H.grib2 2026-04-28 04:17 920K
20260428T00Z_MSC_GDPS_WindV_IsbL-0350_LatLon0.15_PT072H.grib2 2026-04-28 04:17 870K
20260428T00Z_MSC_GDPS_WindV_IsbL-0400_LatLon0.15_PT072H.grib2 2026-04-28 04:17 874K
20260428T00Z_MSC_GDPS_WindV_IsbL-0450_LatLon0.15_PT072H.grib2 2026-04-28 04:17 1.1M
20260428T00Z_MSC_GDPS_WindV_IsbL-0500_LatLon0.15_PT072H.grib2 2026-04-28 04:17 1.1M
20260428T00Z_MSC_GDPS_WindV_IsbL-0550_LatLon0.15_PT072H.grib2 2026-04-28 04:17 1.1M
20260428T00Z_MSC_GDPS_WindV_IsbL-0600_LatLon0.15_PT072H.grib2 2026-04-28 04:17 1.1M
20260428T00Z_MSC_GDPS_WindV_IsbL-0650_LatLon0.15_PT072H.grib2 2026-04-28 04:17 1.2M
20260428T00Z_MSC_GDPS_WindV_IsbL-0700_LatLon0.15_PT072H.grib2 2026-04-28 04:17 1.2M
20260428T00Z_MSC_GDPS_WindV_IsbL-0750_LatLon0.15_PT072H.grib2 2026-04-28 04:17 1.2M
20260428T00Z_MSC_GDPS_WindV_IsbL-0800_LatLon0.15_PT072H.grib2 2026-04-28 04:17 1.3M
20260428T00Z_MSC_GDPS_WindV_IsbL-0850_LatLon0.15_PT072H.grib2 2026-04-28 04:17 1.4M
20260428T00Z_MSC_GDPS_WindV_IsbL-0875_LatLon0.15_PT072H.grib2 2026-04-28 04:17 1.4M
20260428T00Z_MSC_GDPS_WindV_IsbL-0900_LatLon0.15_PT072H.grib2 2026-04-28 04:17 1.4M
20260428T00Z_MSC_GDPS_WindV_IsbL-0925_LatLon0.15_PT072H.grib2 2026-04-28 04:17 1.4M
20260428T00Z_MSC_GDPS_WindV_IsbL-0950_LatLon0.15_PT072H.grib2 2026-04-28 04:17 1.4M
20260428T00Z_MSC_GDPS_WindV_IsbL-0970_LatLon0.15_PT072H.grib2 2026-04-28 04:17 1.4M
20260428T00Z_MSC_GDPS_WindV_IsbL-0985_LatLon0.15_PT072H.grib2 2026-04-28 04:17 1.7M
20260428T00Z_MSC_GDPS_WindV_IsbL-1000_LatLon0.15_PT072H.grib2 2026-04-28 04:17 1.7M
20260428T00Z_MSC_GDPS_WindV_IsbL-1015_LatLon0.15_PT072H.grib2 2026-04-28 04:17 1.6M